TimeCDT,TemperatureF,Dew PointF,Humidity,Sea Level PressureIn,VisibilityMPH,Wind Direction,Wind SpeedMPH,Gust SpeedMPH,PrecipitationIn,Events,Conditions,WindDirDegrees,DateUTC
12:51 AM,82.0,64.0,54,29.67,10.0,SSW,6.9,-,N/A,,Clear,200,2013-05-20 05:51:00
1:51 AM,79.0,64.0,60,29.67,10.0,WSW,6.9,-,N/A,,Clear,250,2013-05-20 06:51:00
2:51 AM,78.1,64.0,62,29.67,9.0,SW,5.8,-,N/A,,Clear,220,2013-05-20 07:51:00
3:51 AM,79.0,66.9,66,29.66,8.0,South,6.9,-,N/A,,Clear,180,2013-05-20 08:51:00
4:51 AM,77.0,68.0,74,29.67,9.0,South,4.6,-,N/A,,Clear,180,2013-05-20 09:51:00
5:51 AM,75.9,68.0,76,29.68,8.0,South,8.1,-,N/A,,Clear,190,2013-05-20 10:51:00
6:51 AM,75.0,68.0,79,29.70,7.0,South,4.6,-,N/A,,Clear,190,2013-05-20 11:51:00
7:51 AM,75.9,66.9,74,29.71,8.0,South,11.5,-,N/A,,Clear,180,2013-05-20 12:51:00
8:51 AM,78.1,68.0,71,29.73,9.0,SSW,13.8,18.4,N/A,,Clear,200,2013-05-20 13:51:00
9:51 AM,82.0,68.0,62,29.73,10.0,SSW,15.0,20.7,N/A,,Clear,210,2013-05-20 14:51:00
10:51 AM,84.9,68.0,57,29.73,10.0,SSW,15.0,21.9,N/A,,Clear,210,2013-05-20 15:51:00
11:51 AM,90.0,68.0,48,29.71,10.0,SW,15.0,-,N/A,,Clear,230,2013-05-20 16:51:00
1:51 PM,95.0,59.0,30,29.68,10.0,SW,12.7,23.0,N/A,,Clear,230,2013-05-20 18:51:00
2:51 PM,99.0,52.0,21,29.65,10.0,SSW,11.5,17.3,N/A,,Clear,210,2013-05-20 19:51:00
4:51 PM,100.9,30.0,8,29.60,10.0,SW,13.8,-,N/A,,Clear,220,2013-05-20 21:51:00
5:51 PM,100.9,25.0,7,29.59,10.0,WSW,11.5,18.4,N/A,,Clear,240,2013-05-20 22:51:00
6:51 PM,99.0,24.1,7,29.58,10.0,WSW,15.0,24.2,N/A,,Clear,240,2013-05-20 23:51:00
7:51 PM,96.1,26.1,8,29.58,10.0,West,8.1,-,N/A,,Clear,260,2013-05-21 00:51:00
8:51 PM,86.0,33.1,15,29.60,10.0,SW,5.8,-,N/A,,Clear,230,2013-05-21 01:51:00
9:51 PM,84.0,39.9,21,29.63,10.0,South,8.1,-,N/A,,Clear,190,2013-05-21 02:51:00
10:51 PM,84.0,57.0,40,29.65,10.0,South,6.9,-,N/A,,Clear,190,2013-05-21 03:51:00
11:51 PM,81.0,57.0,44,29.66,10.0,SSE,4.6,-,N/A,,Clear,150,2013-05-21 04:51:00